| time (UTC) | temp C | wind direction | speed KPH | gust KPH | rain 1hr cm | rain 24hr cm | rain mn cm | humidity % | barometer mb |
| 20260503173005 | 18 | 67 | 3.2 | 8.0 | 0.00 | 0.03 | 0.03 | 50 | 1019.4 |
| 20260503171504 | 18 | 165 | 3.2 | 11.3 | 0.00 | 0.03 | 0.03 | 49 | 1019.6 |
| 20260503100118 | 7 | 52 | 0.0 | 0.0 | 0.00 | 1.24 | 0.03 | 92 | 1017.9 |
| 20260503051505 | 10 | 52 | 0.0 | 0.0 | 0.00 | 1.40 | 0.00 | 92 | 1016.2 |
| 20260503044505 | 10 | 52 | 0.0 | 0.0 | 0.00 | 1.40 | 0.00 | 92 | 1016.0 |
| 20260503043006 | 10 | 52 | 0.0 | 0.0 | 0.00 | 1.40 | 0.00 | 92 | 1016.0 |
| 20260503034505 | 11 | 56 | 0.0 | 0.0 | 0.00 | 1.40 | 1.40 | 91 | 1015.9 |
| 20260503033006 | 11 | 56 | 0.0 | 0.0 | 0.00 | 1.40 | 1.40 | 91 | 1015.7 |
| 20260503031505 | 11 | 56 | 0.0 | 0.0 | 0.00 | 1.40 | 1.40 | 91 | 1015.4 |
| 20260503024505 | 10 | 56 | 0.0 | 0.0 | 0.00 | 1.40 | 1.40 | 90 | 1014.8 |
| 20260503023005 | 10 | 56 | 0.0 | 0.0 | 0.00 | 1.40 | 1.40 | 90 | 1014.7 |
| 20260503021505 | 10 | 56 | 0.0 | 0.0 | 0.00 | 1.40 | 1.40 | 89 | 1014.6 |
| 20260503014505 | 11 | 56 | 0.0 | 0.0 | 0.00 | 1.40 | 1.40 | 88 | 1014.1 |
| 20260503013005 | 11 | 56 | 0.0 | 0.0 | 0.00 | 1.40 | 1.40 | 88 | 1013.9 |
| 20260503011505 | 11 | 56 | 0.0 | 0.0 | 0.00 | 1.40 | 1.40 | 88 | 1013.9 |
| 20260503010005 | 12 | 56 | 0.0 | 0.0 | 0.00 | 1.40 | 1.40 | 87 | 1013.6 |
| 20260503004505 | 12 | 56 | 0.0 | 0.0 | 0.00 | 1.40 | 1.40 | 87 | 1013.3 |
| 20260503001506 | 13 | 56 | 0.0 | 0.0 | 0.00 | 1.40 | 1.40 | 86 | 1012.7 |
| 20260503000005 | 13 | 56 | 0.0 | 0.0 | 0.00 | 1.40 | 1.40 | 86 | 1012.6 |
| 20260502234505 | 13 | 56 | 0.0 | 1.6 | 0.00 | 1.40 | 1.40 | 86 | 1012.5 |
| 20260502231505 | 13 | 56 | 1.6 | 6.4 | 0.00 | 1.40 | 1.40 | 84 | 1012.4 |
| 20260502230005 | 13 | 17 | 1.6 | 4.8 | 0.00 | 1.40 | 1.40 | 84 | 1012.1 |
| 20260502224505 | 13 | 15 | 3.2 | 8.0 | 0.00 | 1.40 | 1.40 | 85 | 1012.3 |
| 20260502223005 | 13 | 65 | 3.2 | 8.0 | 0.00 | 1.40 | 1.40 | 85 | 1012.4 |
| 20260502221504 | 13 | 66 | 3.2 | 8.0 | 0.00 | 1.40 | 1.40 | 86 | 1012.2 |
| 20260502220007 | 13 | 80 | 3.2 | 8.0 | 0.00 | 1.40 | 1.40 | 86 | 1012.1 |
| 20260502213004 | 12 | 355 | 4.8 | 12.9 | 0.00 | 1.40 | 1.40 | 88 | 1012.0 |
| 20260502211505 | 12 | 5 | 3.2 | 9.7 | 0.00 | 1.40 | 1.40 | 89 | 1012.0 |
| 20260502210005 | 12 | 92 | 4.8 | 14.5 | 0.00 | 1.40 | 1.40 | 89 | 1011.7 |
| 20260502204502 | 12 | 90 | 4.8 | 14.5 | 0.00 | 1.40 | 1.40 | 89 | 1012.0 |
| 20260502203001 | 12 | 5 | 4.8 | 16.1 | 0.00 | 1.40 | 1.40 | 89 | 1012.1 |
| 20260502201504 | 12 | 348 | 4.8 | 12.9 | 0.00 | 1.40 | 1.40 | 89 | 1012.3 |
| 20260502200006 | 12 | 9 | 4.8 | 12.9 | 0.00 | 1.40 | 1.40 | 89 | 1012.2 |
| 20260502194504 | 12 | 36 | 4.8 | 17.7 | 0.00 | 1.40 | 1.40 | 89 | 1012.3 |
| 20260502193001 | 12 | 11 | 6.4 | 16.1 | 0.00 | 1.40 | 1.40 | 89 | 1012.4 |
| 20260502191503 | 12 | 128 | 4.8 | 19.3 | 0.00 | 1.40 | 1.40 | 90 | 1012.2 |
| 20260502190005 | 12 | 46 | 6.4 | 19.3 | 0.00 | 1.42 | 1.40 | 91 | 1012.0 |
| 20260502184504 | 12 | 339 | 3.2 | 14.5 | 0.00 | 1.42 | 1.40 | 92 | 1012.1 |